Location: Rochester
(43.1610°N, 77.6109°W)
Time: 05:30:32
(UTC-05:00)

ISS - Visible Passes

Search period start: 28 November 2023 00:00
Search period end: 08 December 2023 00:00
Orbit: 416 x 418 km, 51.6° (Epoch: 28 November)

Date Brightness Start Highest point End Pass type
(mag) Time Alt. Az. Time Alt. Az. Time Alt. Az.
28 Nov -2.0 17:42:09 10° NW 17:44:43 20° N 17:46:01 16° NE visible
28 Nov -0.5 19:18:47 10° NW 19:18:56 11° NW 19:18:56 11° NW visible
29 Nov -2.3 18:30:32 10° NW 18:32:40 28° NNW 18:32:40 28° NNW visible
30 Nov -2.5 17:42:13 10° NW 17:45:08 26° NNE 17:46:25 20° NE visible
30 Nov -0.7 19:18:47 10° WNW 19:19:21 14° WNW 19:19:21 14° WNW visible
01 Dec -3.4 18:30:23 10° NW 18:33:11 55° NNW 18:33:11 55° NNW visible
02 Dec -3.4 17:41:59 10° NW 17:45:13 45° NNE 17:47:09 21° E visible
02 Dec -0.8 19:18:58 10° WNW 19:20:05 17° W 19:20:05 17° W visible
03 Dec -2.8 18:30:13 10° WNW 18:33:27 45° SW 18:34:13 37° S visible
04 Dec -3.7 17:41:36 10° WNW 17:44:56 78° SW 17:48:17 10° SE visible
05 Dec -0.9 18:30:28 10° W 18:32:45 17° SW 18:35:02 10° S visible
06 Dec -1.6 17:41:20 10° WNW 17:44:16 29° SW 17:47:12 10° SSE visible
